Location: Belfast
(54.5830°N, 5.9330°W)
Time: 20:27:53
(UTC+01:00)

ISS - Visible Passes

Search period start: 24 September 2021 00:00
Search period end: 04 October 2021 00:00
Orbit: 419 x 423 km, 51.6° (Epoch: 24 September)

Date Brightness Start Highest point End Pass type
(mag) Time Alt. Az. Time Alt. Az. Time Alt. Az.
24 Sep -3.1 19:59:13 10° WSW 20:02:25 42° SSE 20:05:32 11° E visible
24 Sep -3.1 21:35:43 10° W 21:38:31 45° SW 21:38:31 45° SW visible
25 Sep -3.4 20:48:51 10° WSW 20:52:09 52° S 20:53:21 32° SE visible
25 Sep -1.0 22:25:38 10° W 22:26:20 15° W 22:26:20 15° W visible
26 Sep -3.3 20:02:00 10° WSW 20:05:17 51° S 20:08:10 13° ESE visible
26 Sep -2.5 21:38:41 10° W 21:41:09 33° SW 21:41:09 33° SW visible
27 Sep -3.1 20:51:47 10° W 20:55:01 44° SSW 20:55:58 34° SSE visible
27 Sep -0.6 22:28:53 10° WSW 22:28:57 10° WSW 22:28:57 10° WSW visible
28 Sep -3.2 20:04:53 10° W 20:08:09 49° S 20:10:48 15° ESE visible
28 Sep -1.8 21:41:47 10° W 21:43:47 22° SW 21:43:47 22° SW visible
29 Sep -2.5 20:54:46 10° W 20:57:47 30° SSW 20:58:38 27° S visible
30 Sep -2.7 20:07:49 10° W 20:10:58 37° SSW 20:13:31 14° SE visible
30 Sep -1.1 21:45:22 10° WSW 21:46:31 13° SW 21:46:31 13° SW visible
01 Oct -1.6 20:58:01 10° WSW 21:00:26 18° SSW 21:01:27 16° S visible
02 Oct -1.8 20:10:53 10° W 20:13:40 24° SSW 20:16:26 10° SSE visible
